Retour au catalogue

YUNYAO-1 36

ActifMétéoSSO
NORAD 61904·PAYLOAD·🇨🇳 China
Ce nom de satellite n'a pas encore été confirmé par des sources officielles.

Lancé Nov 11, 2024 depuis Jiuquan Satellite Launch Center

Loading…

Prochains Passages (prochaines 24 heures)

TLE

FraisSource: Space-Track

Époque: Sep 14, 2026, 15:24 UTC

1 61904U 24205L   26257.64225461  .00005064  00000-0  30764-3 0  9993
2 61904  97.4052 324.9757 0067323  59.5853 301.2006 15.09005503101688

Suivez YUNYAO-1 36 en temps réel avec AllMySat

Download on the App Store